sat.trackr.live / text

‹ back to catalog

COSMOS 2564 (761)

NORAD 54377 · 2022-161A

PAYLOAD ACTIVE UNKNOWN

§ Identity

Operator
Country
CIS
Launch date
2022-11-28
Launch site
PLMSC
Launch vehicle
Mass (kg)
RCS (m²)

Purposes: nav

External: N2YO · Heavens-Above · Gunter

§ Orbital elements

Epoch: 2026-05-24T07:24:47.530944Z

Period
675.73 min
Inclination
64.7397°
Eccentricity
0.0011803
Mean motion
2.13102020 rev/d
Perigee alt
19,099.8 km
Apogee alt
19,160.0 km
Semi-major
25,508.0 km
B*
0.0000e+0
RAAN
193.5043°
Arg perigee
223.1851°
Mean anomaly
136.7915°
Rev number
2,712

§ Raw data

COSMOS 2564 (761)1 54377U 22161A   26144.30888346  .00000036  00000+0  00000+0 0  99922 54377  64.7397 193.5043 0011803 223.1851 136.7915  2.13102020 27129

JSON: /api/v1/satellites/54377 · /tle

For live sub-satellite position, see the globe view (requires WebGL).

§ Visibility from observer

Set your observer location to see the next 7 days of passes ≥ 10°. The values pass through the URL so the page stays shareable.

No JS? Fill the form by hand. The geolocation button needs JavaScript.